#timestamp,LO_Frequency,Hit,StdDev 
1526688015.2,286047002.0,N
1526688035.1,286047005.1,Y
1526688036.0,286047005.1,P
1526688055.8,286047002.4,N
1526688075.7,286047002.7,N
1526688095.5,286047001.3,N
1526688115.3,286047005.2,Y
1526688135.2,286047002.8,P
1526688155.0,286047001.9,P
1526688155.9,286047001.9,P
1526688175.8,286047002.1,Y
1526688195.6,286046999.3,P
1526688215.4,286046996.7,N
1526688235.3,286046997.0,N
1526688255.1,286046998.8,N
1526688275.8,286046996.6,N
1526688295.7,286046997.3,N
1526688315.5,286046996.6,N
1526688335.4,286046995.2,N
1526688355.2,286046995.5,N
1526688375.0,286046997.9,N
1526688375.9,286046997.9,N
1526688395.8,286046994.9,N
1526688415.6,286046996.4,N
1526688435.4,286046997.6,N
1526688455.3,286046999.3,N
1526688475.1,286046997.3,N
1526688495.9,286046996.9,N
1526688515.7,286046997.4,N
1526688535.5,286046995.6,N
1526688555.4,286046997.7,N
1526688575.2,286046997.1,N
1526688595.0,286046995.4,N
1526688595.9,286046995.4,N
1526688615.8,286046997.0,N
1526688635.6,286046998.9,N
1526688655.5,286046996.6,N
1526688675.3,286046996.6,N
1526688695.1,286046996.8,N
1526688715.9,286046999.6,N
1526688735.7,286046998.3,N
1526688755.5,286046999.9,N
1526688775.4,286046998.9,N
1526688795.2,286046998.4,N
1526688815.1,286046998.9,N
1526688816.0,286046998.9,N
1526688835.8,286046999.3,N
1526688855.6,286046999.2,N
1526688875.5,286046997.8,N
1526688895.3,286046998.4,N
1526688915.1,286046999.3,N
1526688935.9,286046998.1,N
1526688955.7,286047002.4,N
1526688975.6,286047000.7,N
1526688995.4,286047002.0,N
1526689015.2,286047002.2,N
1526689035.1,286047000.7,N
1526689036.0,286047000.7,N
1526689055.8,286046998.7,N
1526689075.6,286047000.1,N
1526689095.5,286047001.5,N
1526689115.3,286047001.7,N
1526689135.2,286047000.3,N
1526689155.9,286047004.4,N
1526689175.7,286047002.5,N
1526689195.6,286047000.3,N
1526689215.4,286047001.8,N
1526689235.3,286047000.5,N
1526689255.1,286047000.6,N
1526689256.0,286047000.6,N
1526689275.8,286047000.6,N
1526689295.7,286047000.1,N
1526689315.5,286047004.4,N
1526689335.3,286047003.7,N
1526689355.2,286047002.8,N
1526689375.0,286047001.9,N
1526689375.9,286047001.9,N
1526689395.8,286047001.9,N
1526689415.6,286047000.2,N
1526689435.4,286047000.2,N
1526689455.3,286047002.8,N
1526689475.1,286047000.1,N
1526689495.9,286046998.6,N
1526689515.7,286046999.6,N
1526689535.5,286046998.4,N
1526689555.4,286046998.4,N
1526689575.2,286046998.9,N
1526689595.1,286046998.9,N
1526689596.0,286046998.9,N
1526689615.8,286046999.0,N
1526689635.6,286046998.2,N
1526689655.5,286047000.3,N
1526689675.3,286046998.3,N
1526689725.2,286046999.7,E
1526689735.1,286047002.4,N
1526689736.0,286047002.4,P
1526689755.8,286047000.2,P
1526689775.7,286046998.3,N
1526689795.5,286047000.3,N
1526689815.3,286047000.4,N
1526689835.2,286046998.3,N
1526689855.0,286046999.1,N
1526689855.9,286046999.1,N
1526689875.8,286047001.1,N
1526689895.6,286047001.1,N
1526689915.4,286047001.9,N
1526689935.3,286047000.7,N
1526689955.1,286047000.8,N
1526689975.9,286047001.6,N
1526689995.7,286047003.3,N
1526690015.5,286047002.1,N
1526690035.4,286047002.5,N
1526690055.2,286047001.9,N
1526690075.0,286047004.4,Y
1526690076.0,286047004.4,P
1526690095.8,286047001.9,N
1526690115.6,286047004.4,N
1526690135.5,286047002.0,N
1526690155.3,286047002.7,N
1526690175.1,286047000.3,N
1526690195.9,286046999.4,N
1526690215.7,286046999.8,N
1526690235.5,286047001.9,N
1526690255.4,286047001.8,N
1526690275.2,286047005.4,Y
1526690295.1,286047003.9,P
1526690296.0,286047003.9,P
1526690315.8,286047004.0,P
1526690335.7,286047001.5,N
1526690355.5,286047002.3,N
1526690375.3,286047004.3,Y
1526690395.2,286047000.5,P
1526690415.0,286046998.9,N
1526690415.9,286046998.9,N
1526690435.8,286047000.3,N
1526690455.6,286047000.7,N
1526690475.4,286047000.7,N
1526690495.3,286047000.0,N
1526690515.1,286046999.8,N
1526690535.8,286047000.8,N
1526690555.7,286047002.3,N
1526690575.5,286046999.8,N
1526690595.4,286047000.7,N
1526690615.2,286046998.9,N
1526690635.0,286046999.4,N
1526690635.9,286046999.4,N
1526690655.8,286046999.2,N
1526690675.6,286046999.5,N
1526690695.4,286046996.5,Y
1526690715.3,286046997.3,P
1526690735.1,286047001.0,N
1526690755.9,286047001.0,N
1526690775.7,286047000.9,N
1526690795.5,286046998.7,N
1526690815.4,286046998.9,N
1526690835.2,286046999.5,N
1526690855.0,286046999.2,N
1526690855.9,286046999.2,N
1526690875.8,286047000.9,N
1526690895.6,286046999.0,N
1526690915.5,286046999.0,N
1526690935.3,286046998.3,N
1526690955.1,286046999.5,N
1526690975.9,286046997.1,N
1526690995.7,286046995.9,Y
1526691015.6,286046997.6,P
1526691035.4,286046995.6,P
1526691055.2,286046993.3,P
1526691075.1,286046995.8,N
1526691076.0,286046995.8,N
1526691095.8,286046996.3,N
1526691115.7,286046996.3,N
1526691135.5,286046995.6,N
1526691155.3,286046993.6,Y
1526691175.2,286046998.8,P
1526691195.0,286046998.4,N
1526691195.9,286046998.4,N
1526691215.7,286046998.6,N
1526691235.6,286046996.7,Y
1526691255.4,286046999.2,P
1526691275.3,286046999.3,N
1526691295.1,286046996.9,P
1526691315.8,286046998.8,N
1526691335.7,286047000.0,N
1526691355.5,286047003.6,Y
1526691375.4,286047004.8,P
1526691395.2,286047005.5,N
1526691415.0,286047003.2,N
1526691415.9,286047003.2,N
1526691435.8,286047003.4,N
1526691455.6,286047005.1,N
1526691475.4,286047002.9,N
1526691495.3,286047004.9,N
1526691515.1,286047004.4,N
1526691535.9,286047003.2,N
1526691555.7,286047003.6,N
1526691575.5,286047005.7,Y
1526691625.7,286047003.9,E
